Theta_e
336 329 322 318 301 299 296 300 306 309 312 316 315 313 312 312 313 308 328 337 340 343 349 352 354 354 353 351 350 349 348 347 346 343 340 339 338 337 336 336 335 335 335 336 336 336 337 338 337
326 322 313 311 299 295 298 303 305 313 317 321 320 316 315 317 326 329 332 340 340 345 347 348 354 354 353 351 350 349 348 347 346 344 341 339 339 338 338 337 337 337 337 337 338 338 339 341 342
328 326 304 301 299 297 299 307 312 317 321 320 317 321 317 320 328 329 335 341 342 344 346 347 354 353 353 351 350 348 348 348 347 344 343 342 341 342 341 339 339 339 340 341 341 341 341 341 344
321 314 305 298 299 304 306 311 314 317 320 321 320 317 319 323 327 331 342 342 341 343 344 351 353 352 352 352 350 349 348 349 348 346 345 344 343 344 343 341 341 341 341 342 343 345 345 344 344
317 307 296 296 299 306 311 313 312 315 317 318 320 316 315 324 330 341 341 341 339 339 342 349 353 352 352 352 351 350 349 349 349 349 347 346 347 346 344 343 343 343 343 344 345 346 347 345 345
305 303 294 294 299 306 310 312 311 316 319 319 318 318 316 324 330 339 341 340 340 338 339 346 353 352 351 352 351 350 349 349 349 350 349 349 349 348 346 345 344 345 346 347 347 347 346 345 345
303 298 294 297 300 304 309 314 312 311 314 316 318 315 317 320 324 335 340 340 340 338 339 343 346 349 352 351 350 350 349 349 349 349 349 349 349 349 349 348 347 347 348 348 346 345 344 344 344
306 299 294 297 299 301 310 311 312 312 313 320 319 311 311 319 323 321 326 336 337 337 339 339 340 343 345 346 352 350 349 349 348 349 349 349 350 349 349 347 349 348 348 347 346 344 341 341 342
312 295 292 297 300 302 309 308 316 319 315 318 319 317 319 323 324 317 316 316 333 337 339 340 339 339 342 342 347 350 351 350 349 349 349 347 344 344 344 347 347 349 349 347 345 343 341 339 339
311 296 296 302 305 302 306 307 309 311 312 314 316 321 322 322 318 317 315 314 326 333 339 341 341 338 339 340 341 345 344 344 344 343 343 342 340 338 342 343 349 349 349 346 344 343 340 336 330
311 307 309 308 309 308 306 308 311 309 308 312 313 315 320 320 319 318 317 316 315 328 339 341 341 340 337 335 338 343 342 342 342 341 341 341 339 335 335 333 340 342 345 337 340 336 332 330 330
305 311 314 315 315 311 308 311 309 310 310 315 316 317 317 317 317 316 316 316 315 316 336 341 341 340 339 336 336 340 340 341 341 341 340 339 333 330 330 330 331 331 332 330 327 326 328 329 331
300 307 311 310 310 312 312 309 309 310 314 317 317 316 314 313 314 315 316 316 316 315 317 339 341 340 340 338 338 338 338 340 341 340 339 338 334 332 331 330 329 329 328 328 326 327 328 328 328
299 300 302 306 308 309 307 308 310 312 316 315 314 313 313 312 314 314 315 315 315 316 316 334 340 341 341 339 337 338 338 337 338 339 338 337 335 333 331 329 328 329 328 328 328 327 327 327 327
301 297 299 301 301 303 310 305 306 312 314 312 313 312 313 313 314 314 315 315 316 317 318 328 338 341 340 338 336 338 338 339 338 337 337 337 335 332 331 330 331 329 329 328 327 327 326 326 327
296 295 291 299 301 303 303 296 307 311 310 310 312 313 314 314 316 316 316 315 315 315 317 324 337 340 339 338 336 339 339 339 338 336 337 337 336 333 331 331 328 330 330 328 327 325 324 324 324
293 290 291 295 301 301 301 298 306 310 309 307 309 310 312 314 314 314 317 317 318 319 319 322 331 335 337 337 335 338 338 339 337 336 337 337 336 335 333 331 329 330 329 328 327 326 324 322 322
288 290 293 293 298 300 299 299 304 307 307 307 309 310 311 312 313 316 316 318 317 318 317 320 332 333 335 333 335 334 334 333 334 335 337 336 336 336 332 330 329 329 328 327 326 325 324 323 321
294 293 293 295 300 299 299 299 302 305 306 306 307 309 310 309 313 314 315 316 318 316 318 321 330 332 336 335 336 335 333 331 330 332 335 335 335 335 330 330 329 329 327 325 325 323 322 320 320
292 290 290 295 298 297 297 297 301 304 305 306 306 308 308 309 311 314 314 315 316 316 316 323 329 337 338 338 337 335 332 329 330 330 333 333 334 333 331 329 328 327 324 324 321 322 318 318 319
291 289 290 291 296 298 295 293 296 301 302 304 306 308 309 309 309 310 311 312 311 315 320 327 333 338 339 336 335 331 329 327 326 327 329 330 332 332 331 328 327 325 324 321 320 320 318 315 316
287 294 295 294 292 286 295 285 294 297 299 302 304 305 305 307 311 310 312 309 311 322 331 335 336 337 337 338 336 333 327 324 325 326 326 328 330 330 330 328 326 324 322 320 321 322 319 316 313
289 296 294 294 290 288 290 286 289 297 297 300 303 306 305 307 308 309 311 310 323 331 334 337 337 338 337 335 333 330 326 324 325 326 326 324 325 327 328 327 325 323 322 321 321 321 319 317 315
294 292 292 292 288 282 289 288 287 292 296 300 302 305 307 306 308 311 320 327 328 332 336 336 337 333 334 332 328 328 325 325 324 323 324 323 324 326 325 326 323 322 322 321 323 322 320 318 317
289 283 278 278 279 281 291 288 291 295 299 301 302 304 305 315 318 321 323 326 329 331 332 333 333 329 328 327 326 326 324 325 323 323 323 322 324 320 321 321 322 322 322 324 323 321 320 319 318
285 283 279 275 277 282 291 285 290 299 302 304 305 305 316 318 320 322 325 329 330 331 329 329 329 325 327 326 325 325 324 324 323 323 322 321 321 321 320 321 321 323 325 326 325 322 321 320 321
286 283 286 282 286 282 286 291 295 299 300 301 302 313 315 317 320 324 328 329 328 327 326 327 325 326 326 326 324 324 324 324 322 322 322 322 321 322 322 322 323 325 325 326 324 322 321 321 321
289 291 282 281 277 276 284 287 289 295 298 301 300 311 314 318 320 325 327 326 326 326 325 325 326 326 326 324 326 325 324 323 323 322 321 320 320 321 322 321 323 323 324 325 324 322 321 320 321
286 285 285 285 283 279 279 284 295 296 299 300 301 314 317 318 321 324 325 326 326 326 325 324 325 326 325 323 324 324 323 323 323 322 321 320 321 321 322 322 322 323 324 324 323 322 321 323 322
290 287 287 279 280 285 284 286 299 298 301 301 313 316 317 319 323 324 325 326 325 324 324 323 324 325 324 323 323 323 323 322 322 321 320 320 319 319 320 321 323 326 326 324 322 322 323 322 322
Wind_Speed
6 3 1 2 2 4 4 6 5 4 4 2 7 6 6 4 6 6 4 14 12 17 15 17 19 18 18 18 18 18 17 16 16 16 16 15 13 12 11 10 8 6 4 4 3 2 2 3 3
3 3 3 1 4 2 5 6 5 3 4 7 13 5 6 2 2 6 5 5 10 15 14 14 19 18 18 19 19 19 18 17 16 16 16 15 14 13 11 10 9 7 6 5 4 4 4 5 5
1 1 3 3 3 5 4 3 4 2 5 7 6 5 2 3 3 6 5 13 13 14 14 16 21 20 20 19 19 18 18 17 16 16 16 15 15 13 12 11 10 8 7 7 7 7 7 7 7
2 3 3 1 8 8 4 11 6 4 5 6 4 4 5 6 8 9 14 17 15 14 15 20 24 23 22 21 21 20 19 19 18 18 17 16 16 15 13 12 11 9 8 9 9 9 10 9 9
3 2 1 3 7 8 12 4 9 5 3 4 6 5 4 5 9 14 16 16 17 15 14 17 24 24 23 23 23 22 21 20 19 18 18 17 17 16 15 14 12 11 10 11 11 11 9 9 10
2 3 1 6 6 8 5 5 5 4 8 6 2 4 5 4 10 13 16 17 16 19 15 16 23 24 24 23 23 23 23 22 21 19 19 18 17 17 16 15 13 12 12 12 11 10 9 8 9
5 4 5 4 4 5 2 7 6 2 6 8 4 5 4 4 8 14 15 12 14 14 16 15 17 20 24 24 24 23 24 23 22 21 20 18 17 16 15 15 14 14 14 13 12 12 11 10 10
3 4 3 5 5 7 4 12 2 3 12 4 5 5 2 6 7 6 5 9 10 10 12 16 15 16 16 16 24 25 25 25 24 22 20 19 17 15 15 13 13 13 14 14 13 13 12 10 10
4 1 6 8 6 6 5 8 28 14 6 4 4 5 8 10 8 2 3 5 7 6 10 12 14 15 15 14 15 21 23 22 22 21 21 16 8 9 11 11 14 14 15 13 12 12 11 10 11
6 6 11 7 4 4 6 2 13 18 22 8 9 2 5 3 5 9 7 7 12 12 11 11 13 16 14 12 12 13 12 11 12 12 13 9 8 7 8 10 14 16 16 14 13 12 11 8 3
5 18 8 9 7 7 9 11 9 15 20 8 8 8 7 6 10 10 6 7 9 19 13 18 17 14 14 13 9 7 7 7 8 11 10 8 6 5 4 3 4 6 11 4 7 5 4 5 4
17 17 17 16 14 11 14 15 17 18 20 13 10 9 5 7 9 9 9 10 7 8 16 17 16 16 16 10 9 10 8 8 8 9 10 8 5 5 4 4 4 4 3 5 4 3 4 6 5
23 19 17 11 14 18 16 20 22 25 21 21 12 8 9 8 10 9 11 10 10 9 9 17 18 17 16 15 10 10 11 10 9 9 10 8 7 7 5 4 4 4 4 4 4 4 4 5 5
4 4 10 10 16 16 18 23 22 25 23 23 12 12 11 10 10 8 8 10 10 12 11 16 18 18 17 17 15 12 11 10 9 9 10 12 8 7 6 5 4 4 5 4 4 4 5 5 4
15 16 16 20 9 8 11 26 29 21 21 20 15 9 9 10 11 12 12 11 12 11 12 12 18 17 16 19 15 12 11 10 10 9 11 13 11 9 7 5 4 4 4 6 4 3 2 3 3
4 5 15 23 19 8 6 36 19 11 11 17 18 20 21 21 21 17 13 12 11 9 11 9 12 18 18 17 13 11 11 10 9 8 8 12 11 10 7 5 5 4 5 5 4 4 4 4 4
6 12 16 22 8 2 15 40 10 11 14 13 14 16 17 21 16 13 16 15 12 11 11 10 9 15 17 15 10 11 11 10 8 7 8 10 11 10 7 5 5 6 4 3 3 4 4 4 4
11 19 17 10 5 13 22 35 21 21 22 24 23 23 21 21 20 18 17 15 8 9 8 6 10 11 12 6 5 4 5 5 7 8 8 11 9 10 6 5 5 4 4 3 3 4 4 4 4
10 11 16 4 9 12 18 24 18 13 14 15 19 20 20 15 16 11 10 9 9 8 8 9 10 8 10 8 9 8 9 7 6 8 11 10 9 8 6 4 5 5 5 5 5 3 5 4 2
15 17 18 9 10 8 13 27 17 20 19 20 18 20 18 10 10 10 9 9 10 11 10 9 10 12 12 10 9 6 6 4 5 4 6 6 8 6 6 6 5 6 4 5 3 4 1 2 4
16 19 16 16 14 22 14 21 13 17 15 10 10 13 11 13 13 11 11 12 7 8 10 10 11 12 10 10 8 6 6 5 4 4 5 5 7 7 7 6 6 5 4 4 4 4 5 3 2
21 13 12 17 13 12 6 22 22 13 20 16 11 11 11 12 14 10 13 9 10 8 5 8 9 10 9 11 11 15 7 7 3 4 3 5 7 6 6 7 6 5 3 4 4 3 3 3 3
19 12 13 17 9 7 15 7 2 13 19 15 16 16 10 12 11 15 16 8 6 8 9 9 11 10 9 9 12 10 8 4 4 4 8 7 5 6 6 6 6 5 4 3 4 4 4 3 3
5 6 13 15 0 10 13 12 7 12 13 10 9 9 12 9 12 4 2 7 9 9 11 11 11 8 9 9 9 10 11 8 8 6 7 4 3 3 4 5 4 4 4 4 4 4 5 4 4
3 2 2 2 4 18 14 11 19 10 10 17 15 15 8 4 2 6 8 9 9 11 11 10 12 9 9 10 9 9 10 10 11 8 6 6 3 2 3 4 4 3 5 5 4 4 4 4 3
7 10 6 8 5 5 15 11 10 15 20 24 17 11 6 7 5 7 9 11 11 10 9 10 11 11 11 11 10 9 9 7 6 6 5 4 4 4 4 4 5 6 6 5 3 2 3 4 4
3 11 5 5 13 2 5 9 12 24 27 21 15 8 8 8 8 11 11 10 10 10 9 11 12 11 11 11 9 8 8 8 7 7 6 5 4 4 5 6 6 6 5 5 5 3 4 4 3
6 5 6 4 7 4 6 6 10 7 7 10 12 11 9 7 10 11 11 10 9 9 9 10 11 12 9 10 9 8 8 7 7 6 7 6 5 4 5 5 4 4 4 5 4 3 3 3 3
3 3 4 3 4 6 4 8 9 12 15 14 7 16 16 13 12 12 10 10 11 10 10 9 10 11 9 9 8 8 7 7 6 6 6 6 4 5 6 5 5 6 4 3 4 4 4 5 5
4 6 4 2 6 5 1 10 6 3 14 7 13 15 12 13 14 12 12 12 11 10 9 8 8 9 8 8 7 7 7 7 7 6 7 6 6 5 4 3 5 3 4 1 1 2 3 4 5
Wind_Direction
167 186 79 45 70 77 258 262 268 309 299 155 271 70 135 102 158 207 326 170 123 145 152 161 163 158 154 153 152 150 150 149 147 148 146 144 145 144 144 144 147 153 156 157 158 168 200 224 227
182 150 31 1 105 159 260 240 238 278 267 13 350 65 12 46 52 128 97 101 136 141 152 156 162 161 161 160 158 157 153 156 155 154 155 155 156 157 158 161 163 173 179 197 208 218 236 244 246
265 158 89 147 181 206 193 234 228 256 51 40 1 9 133 164 56 130 117 129 138 150 155 162 165 166 167 164 164 162 157 161 160 162 164 165 165 166 169 170 177 186 195 210 222 229 238 247 250
134 26 345 179 239 258 251 283 268 275 346 115 139 307 357 288 147 157 152 145 148 161 165 169 168 171 171 170 169 167 165 166 170 171 173 174 173 175 178 182 188 195 208 220 229 236 237 245 253
70 68 63 230 248 261 255 313 283 242 182 161 147 252 221 316 158 147 155 156 157 170 172 173 175 175 174 175 174 172 172 171 176 180 181 182 180 183 183 190 195 202 216 226 233 242 247 242 255
78 105 104 232 235 262 279 299 299 228 193 207 197 124 215 208 151 179 165 174 172 165 174 176 182 181 179 180 180 177 176 176 179 185 187 189 188 190 187 193 198 206 216 228 236 238 237 231 238
154 122 215 253 254 281 314 307 297 235 268 273 186 133 241 255 237 176 185 174 175 170 168 178 186 189 183 184 184 184 181 180 182 186 191 192 194 194 193 193 198 208 218 226 227 233 232 230 233
167 124 216 234 229 262 70 341 190 323 321 184 139 150 189 243 235 243 187 184 171 169 181 181 183 188 189 191 191 189 187 185 183 187 192 193 196 195 201 200 205 211 217 217 221 226 231 235 243
153 153 222 221 200 244 92 8 289 309 274 326 154 172 185 197 229 212 191 172 172 191 183 183 185 192 193 195 197 196 196 192 190 187 191 192 187 194 203 208 211 211 215 222 226 229 228 231 239
179 195 214 241 278 284 321 220 284 312 307 300 286 198 244 358 171 169 197 221 198 194 193 186 190 194 191 195 196 196 199 197 195 195 189 186 182 188 198 217 214 218 218 216 224 233 239 233 202
229 236 221 252 266 264 271 271 247 278 279 257 278 300 312 307 307 319 251 218 199 204 189 192 191 187 193 196 188 191 197 197 198 194 187 177 177 192 200 212 208 218 222 211 219 232 232 214 199
258 251 244 251 259 261 251 272 274 266 262 253 250 246 243 227 238 253 258 247 235 206 190 195 192 184 192 190 192 190 194 198 198 193 180 173 165 191 206 195 201 195 202 201 203 211 226 232 217
246 252 251 256 253 250 265 265 265 273 280 279 267 251 246 231 240 245 226 240 254 245 199 193 186 190 190 191 188 189 195 197 196 186 182 178 174 187 193 200 184 205 188 199 209 210 222 227 229
304 266 273 261 254 257 258 262 258 263 269 277 284 280 274 258 249 259 247 240 239 246 247 187 190 194 185 192 190 190 191 195 188 188 186 185 175 178 187 187 197 208 194 192 196 206 215 220 206
246 264 278 258 247 272 277 267 250 252 262 268 274 267 270 263 258 238 237 235 227 235 242 178 194 188 186 192 193 186 188 180 187 188 183 181 174 181 177 183 197 194 189 184 186 212 214 216 217
201 226 246 248 243 238 237 263 258 253 277 277 278 280 280 276 269 265 240 230 237 233 218 196 183 184 187 192 189 188 185 177 179 175 175 178 176 173 171 167 178 187 177 176 188 194 218 222 217
211 242 232 254 220 223 207 259 211 219 242 262 265 270 269 273 269 257 249 239 227 215 213 184 181 180 188 195 187 186 173 173 166 164 166 170 178 175 169 172 186 173 177 184 194 224 201 220 224
215 222 236 255 198 211 234 262 261 265 267 269 270 269 268 266 262 263 252 249 243 225 207 174 178 185 186 152 136 130 137 144 149 161 161 165 175 175 165 167 174 163 151 193 219 221 221 217 231
273 266 253 249 202 215 240 256 254 250 257 264 264 265 264 256 256 252 246 234 219 207 212 209 171 172 155 159 157 163 174 160 149 153 157 157 167 168 174 173 164 159 175 202 203 207 222 261 235
242 264 265 286 285 250 247 259 271 266 264 257 260 260 254 246 253 249 234 218 209 206 200 186 187 170 177 176 183 141 142 113 134 133 148 152 169 164 165 161 163 170 176 208 207 213 260 244 184
248 237 258 263 289 288 291 286 270 265 262 259 241 243 246 239 256 255 249 234 228 214 202 182 185 173 166 138 117 94 83 74 84 97 144 183 150 150 146 152 163 174 174 203 215 203 193 210 227
246 250 249 241 251 260 200 279 256 261 266 266 250 252 257 262 268 253 256 245 200 203 151 134 135 132 131 140 135 147 142 147 150 139 119 105 124 135 146 142 152 170 175 199 220 197 195 159 200
248 260 238 245 259 248 246 275 276 218 245 250 252 254 251 253 252 263 256 243 182 141 125 120 119 119 127 122 127 129 127 121 108 106 113 117 130 135 136 153 151 160 180 199 207 199 195 185 169
286 254 231 251 265 256 217 225 253 224 230 248 249 262 257 272 272 270 102 116 117 109 108 118 117 109 115 114 120 133 126 125 118 111 118 124 121 116 143 138 145 175 187 204 214 215 206 195 199
211 35 248 240 185 236 182 226 243 275 256 241 246 254 260 262 113 100 101 106 109 108 107 109 113 111 101 102 108 116 126 132 130 130 130 137 131 140 185 143 179 185 207 210 197 200 217 200 202
173 170 187 195 199 254 253 239 241 242 255 255 254 265 160 124 142 106 105 108 109 103 101 108 113 106 104 108 105 107 107 113 118 133 137 142 162 172 148 162 170 203 204 205 206 193 209 204 222
269 221 205 291 277 302 236 257 281 256 258 256 247 162 173 149 138 124 114 111 108 111 108 116 113 109 111 108 98 97 109 116 122 128 142 152 154 142 164 168 196 206 209 213 197 205 217 219 221
199 282 162 215 225 223 276 258 236 283 264 260 243 175 155 152 128 120 121 115 115 110 107 106 108 116 117 106 108 107 111 110 117 121 128 141 147 159 169 198 213 235 235 237 225 208 229 207 217
355 244 207 172 195 188 322 278 235 257 276 267 217 169 157 149 144 128 127 124 124 115 115 113 111 116 114 112 119 122 123 121 117 124 133 158 160 178 201 210 230 233 222 218 198 230 221 217 227
263 242 157 228 260 238 111 272 230 313 287 186 157 147 145 136 133 130 129 130 128 126 125 123 119 123 136 127 127 113 121 119 117 133 149 151 161 198 208 250 254 203 168 175 209 229 211 231 208